Location: ????????
(48.4751°N, 37.6926°E)
Time: 13:41:46
(UTC+00:00)

Cosmos 1844 Rocket - Pass Details

Date: 20 January 2021
Orbit: 825 x 843 km, 71.0° (Epoch: 26 February)

Event Time Altitude Azimuth Distance (km) Brightness Sun altitude
Rises 14:45:04 0° 157° (SSE) 3,388 5.9 -6.1°
Reaches altitude 10° 14:48:17 10° 139° (SE) 2,458 4.9 -6.6°
Maximum altitude 14:51:53 18° 99° (E) 1,976 4.1 -7.2°
Drops below altitude 10° 14:55:30 10° 59° (ENE) 2,465 4.5 -7.7°
Enters shadow 14:55:57 - 56° (NE) 2,577 4.6 -7.8°
